contact:dominique.lefevre@mio.osupytheas.fr, maurice.libes@osupytheas.fr, didier.mallarino@osupytheas.fr
Project:EMSO http://www.emso-fr.org/EMSO-France
Depth: 2436.0 m
Title:EMSO Ligure Ouest : Data MII capteur MICROCAT
DateTime_Computer,Latitude,Longitude,Temperature,Conductivity,Pressure,DateTime_Instrument
DateTime_Computer,Latitude,Longitude,degC,S m-1,dbar,DateTime_Instrument
2022-10-15T00:00:11Z,42.805,6.029,13.3037,4.60117,2470.6,2022-10-15T02:02:06Z
2022-10-15T00:03:14Z,42.805,6.029,13.3048,4.60129,2470.553,2022-10-15T02:05:09Z
2022-10-15T00:06:17Z,42.805,6.029,13.3043,4.60103,2470.6,2022-10-15T02:08:12Z
2022-10-15T00:09:20Z,42.805,6.029,13.3043,4.60088,2470.577,2022-10-15T02:11:16Z
2022-10-15T00:12:24Z,42.805,6.029,13.3036,4.60115,2470.577,2022-10-15T02:14:19Z
2022-10-15T00:15:27Z,42.805,6.029,13.3063,4.60132,2470.591,2022-10-15T02:17:22Z
2022-10-15T00:18:30Z,42.805,6.029,13.3043,4.60127,2470.553,2022-10-15T02:20:25Z
2022-10-15T00:21:33Z,42.805,6.029,13.3031,4.60127,2470.553,2022-10-15T02:23:28Z
2022-10-15T00:24:36Z,42.805,6.029,13.3048,4.60122,2470.577,2022-10-15T02:26:31Z
2022-10-15T00:27:39Z,42.805,6.029,13.3049,4.60148,2470.553,2022-10-15T02:29:34Z
2022-10-15T00:30:42Z,42.805,6.029,13.3047,4.60103,2470.553,2022-10-15T02:32:37Z
2022-10-15T00:33:45Z,42.805,6.029,13.3036,4.60120,2470.6,2022-10-15T02:35:40Z
2022-10-15T00:36:48Z,42.805,6.029,13.3040,4.60149,2470.577,2022-10-15T02:38:43Z
2022-10-15T00:39:51Z,42.805,6.029,13.3063,4.60105,2470.53,2022-10-15T02:41:46Z
2022-10-15T00:42:54Z,42.805,6.029,13.3043,4.60139,2470.567,2022-10-15T02:44:49Z
2022-10-15T00:45:57Z,42.805,6.029,13.3031,4.60137,2470.567,2022-10-15T02:47:52Z
2022-10-15T00:49:00Z,42.805,6.029,13.3055,4.60154,2470.544,2022-10-15T02:50:56Z
2022-10-15T00:52:04Z,42.805,6.029,13.3070,4.60141,2470.53,2022-10-15T02:53:59Z
2022-10-15T00:55:07Z,42.805,6.029,13.3067,4.60155,2470.567,2022-10-15T02:57:02Z
2022-10-15T00:58:10Z,42.805,6.029,13.3052,4.60149,2470.553,2022-10-15T03:00:05Z
2022-10-15T01:01:13Z,42.805,6.029,13.3053,4.60132,2470.567,2022-10-15T03:03:08Z
2022-10-15T01:04:16Z,42.805,6.029,13.3045,4.60089,2470.553,2022-10-15T03:06:11Z
2022-10-15T01:07:19Z,42.805,6.029,13.3044,4.60107,2470.553,2022-10-15T03:09:14Z
2022-10-15T01:10:22Z,42.805,6.029,13.3077,4.60144,2470.544,2022-10-15T03:12:17Z
2022-10-15T01:13:25Z,42.805,6.029,13.3054,4.60104,2470.53,2022-10-15T03:15:20Z
2022-10-15T01:16:28Z,42.805,6.029,13.3049,4.60095,2470.507,2022-10-15T03:18:23Z
2022-10-15T01:19:31Z,42.805,6.029,13.3049,4.60127,2470.544,2022-10-15T03:21:26Z
2022-10-15T01:22:34Z,42.805,6.029,13.3054,4.60111,2470.53,2022-10-15T03:24:29Z
2022-10-15T01:25:37Z,42.805,6.029,13.3060,4.60114,2470.544,2022-10-15T03:27:32Z
2022-10-15T01:28:40Z,42.805,6.029,13.3026,4.60151,2470.567,2022-10-15T03:30:36Z
2022-10-15T01:31:44Z,42.805,6.029,13.3043,4.60144,2470.53,2022-10-15T03:33:39Z
2022-10-15T01:34:47Z,42.805,6.029,13.3020,4.60117,2470.507,2022-10-15T03:36:42Z
2022-10-15T01:37:50Z,42.805,6.029,13.3026,4.60138,2470.507,2022-10-15T03:39:45Z
2022-10-15T01:40:53Z,42.805,6.029,13.3034,4.60114,2470.544,2022-10-15T03:42:48Z
2022-10-15T01:43:56Z,42.805,6.029,13.3046,4.60099,2470.53,2022-10-15T03:45:51Z
2022-10-15T01:46:59Z,42.805,6.029,13.3050,4.60099,2470.52,2022-10-15T03:48:54Z
2022-10-15T01:50:02Z,42.805,6.029,13.3038,4.60129,2470.52,2022-10-15T03:51:57Z
2022-10-15T01:53:05Z,42.805,6.029,13.3056,4.60110,2470.507,2022-10-15T03:55:00Z
2022-10-15T01:56:08Z,42.805,6.029,13.3043,4.60123,2470.52,2022-10-15T03:58:03Z
2022-10-15T01:59:11Z,42.805,6.029,13.3021,4.60125,2470.52,2022-10-15T04:01:06Z
2022-10-15T02:02:14Z,42.805,6.029,13.3031,4.60114,2470.507,2022-10-15T04:04:09Z
2022-10-15T02:05:17Z,42.805,6.029,13.3032,4.60110,2470.544,2022-10-15T04:07:12Z
2022-10-15T02:08:20Z,42.805,6.029,13.3021,4.60101,2470.507,2022-10-15T04:10:16Z
2022-10-15T02:11:24Z,42.805,6.029,13.3037,4.60111,2470.52,2022-10-15T04:13:19Z
2022-10-15T02:14:27Z,42.805,6.029,13.3029,4.60134,2470.52,2022-10-15T04:16:22Z
2022-10-15T02:17:30Z,42.805,6.029,13.3056,4.60096,2470.483,2022-10-15T04:19:25Z
2022-10-15T02:20:33Z,42.805,6.029,13.3036,4.60112,2470.52,2022-10-15T04:22:28Z
2022-10-15T02:23:36Z,42.805,6.029,13.3046,4.60131,2470.507,2022-10-15T04:25:31Z
2022-10-15T02:26:39Z,42.805,6.029,13.3040,4.60129,2470.483,2022-10-15T04:28:34Z
2022-10-15T02:29:42Z,42.805,6.029,13.3031,4.60111,2470.483,2022-10-15T04:31:37Z
2022-10-15T02:32:45Z,42.805,6.029,13.3021,4.60117,2470.544,2022-10-15T04:34:40Z
2022-10-15T02:35:48Z,42.805,6.029,13.3032,4.60108,2470.544,2022-10-15T04:37:43Z
2022-10-15T02:38:51Z,42.805,6.029,13.3026,4.60104,2470.507,2022-10-15T04:40:46Z
2022-10-15T02:41:54Z,42.805,6.029,13.3023,4.60096,2470.507,2022-10-15T04:43:49Z
2022-10-15T02:44:57Z,42.805,6.029,13.3013,4.60086,2470.52,2022-10-15T04:46:53Z
2022-10-15T02:48:00Z,42.805,6.029,13.3018,4.60084,2470.507,2022-10-15T04:49:56Z
2022-10-15T02:51:04Z,42.805,6.029,13.3016,4.60092,2470.507,2022-10-15T04:52:59Z
2022-10-15T02:54:07Z,42.805,6.029,13.3020,4.60089,2470.507,2022-10-15T04:56:02Z
2022-10-15T02:57:10Z,42.805,6.029,13.3021,4.60099,2470.507,2022-10-15T04:59:05Z
2022-10-15T03:00:13Z,42.805,6.029,13.3021,4.60092,2470.53,2022-10-15T05:02:08Z
2022-10-15T03:03:16Z,42.805,6.029,13.3035,4.60111,2470.497,2022-10-15T05:05:11Z
2022-10-15T03:06:19Z,42.805,6.029,13.3031,4.60087,2470.52,2022-10-15T05:08:14Z
2022-10-15T03:09:22Z,42.805,6.029,13.3024,4.60119,2470.53,2022-10-15T05:11:17Z
2022-10-15T03:12:25Z,42.805,6.029,13.3041,4.60114,2470.483,2022-10-15T05:14:20Z
2022-10-15T03:15:28Z,42.805,6.029,13.3025,4.60086,2470.507,2022-10-15T05:17:23Z
2022-10-15T03:18:31Z,42.805,6.029,13.3025,4.60100,2470.483,2022-10-15T05:20:26Z
2022-10-15T03:21:34Z,42.805,6.029,13.3024,4.60092,2470.52,2022-10-15T05:23:29Z
2022-10-15T03:24:37Z,42.805,6.029,13.3019,4.60087,2470.483,2022-10-15T05:26:33Z
2022-10-15T03:27:40Z,42.805,6.029,13.3020,4.60106,2470.483,2022-10-15T05:29:36Z
2022-10-15T03:30:44Z,42.805,6.029,13.3036,4.60114,2470.483,2022-10-15T05:32:39Z
2022-10-15T03:33:47Z,42.805,6.029,13.3021,4.60091,2470.507,2022-10-15T05:35:42Z
2022-10-15T03:36:50Z,42.805,6.029,13.3022,4.60112,2470.52,2022-10-15T05:38:45Z
2022-10-15T03:39:53Z,42.805,6.029,13.3036,4.60101,2470.483,2022-10-15T05:41:48Z
2022-10-15T03:42:56Z,42.805,6.029,13.3040,4.60092,2470.544,2022-10-15T05:44:51Z
2022-10-15T03:45:59Z,42.805,6.029,13.3031,4.60117,2470.507,2022-10-15T05:47:54Z
2022-10-15T03:49:02Z,42.805,6.029,13.3039,4.60121,2470.483,2022-10-15T05:50:57Z
2022-10-15T03:52:05Z,42.805,6.029,13.3038,4.60100,2470.52,2022-10-15T05:54:00Z
2022-10-15T03:55:08Z,42.805,6.029,13.3029,4.60105,2470.483,2022-10-15T05:57:03Z
2022-10-15T03:58:11Z,42.805,6.029,13.3019,4.60082,2470.544,2022-10-15T06:00:06Z
2022-10-15T04:01:14Z,42.805,6.029,13.3019,4.60100,2470.507,2022-10-15T06:03:09Z
2022-10-15T04:04:17Z,42.805,6.029,13.3021,4.60099,2470.52,2022-10-15T06:06:13Z
2022-10-15T04:07:20Z,42.805,6.029,13.3026,4.60115,2470.52,2022-10-15T06:09:16Z
2022-10-15T04:10:24Z,42.805,6.029,13.3027,4.60093,2470.483,2022-10-15T06:12:19Z
2022-10-15T04:13:27Z,42.805,6.029,13.3019,4.60099,2470.437,2022-10-15T06:15:22Z
2022-10-15T04:16:30Z,42.805,6.029,13.3019,4.60086,2470.53,2022-10-15T06:18:25Z
2022-10-15T04:19:33Z,42.805,6.029,13.3018,4.60098,2470.507,2022-10-15T06:21:28Z
2022-10-15T04:22:36Z,42.805,6.029,13.3014,4.60074,2470.483,2022-10-15T06:24:31Z
2022-10-15T04:25:39Z,42.805,6.029,13.3017,4.60092,2470.483,2022-10-15T06:27:34Z
2022-10-15T04:28:42Z,42.805,6.029,13.3014,4.60090,2470.507,2022-10-15T06:30:37Z
2022-10-15T04:31:45Z,42.805,6.029,13.3014,4.60082,2470.483,2022-10-15T06:33:40Z
2022-10-15T04:34:48Z,42.805,6.029,13.3016,4.60096,2470.483,2022-10-15T06:36:43Z
2022-10-15T04:37:51Z,42.805,6.029,13.3034,4.60084,2470.507,2022-10-15T06:39:46Z
2022-10-15T04:40:54Z,42.805,6.029,13.3016,4.60109,2470.52,2022-10-15T06:42:49Z
2022-10-15T04:43:57Z,42.805,6.029,13.3020,4.60081,2470.52,2022-10-15T06:45:53Z
2022-10-15T04:47:01Z,42.805,6.029,13.3020,4.60087,2470.46,2022-10-15T06:48:56Z
2022-10-15T04:50:04Z,42.805,6.029,13.3018,4.60100,2470.52,2022-10-15T06:51:59Z
2022-10-15T04:53:07Z,42.805,6.029,13.3019,4.60081,2470.507,2022-10-15T06:55:02Z
2022-10-15T04:56:10Z,42.805,6.029,13.3017,4.60079,2470.497,2022-10-15T06:58:05Z
2022-10-15T04:59:13Z,42.805,6.029,13.3014,4.60076,2470.52,2022-10-15T07:01:08Z
2022-10-15T05:02:16Z,42.805,6.029,13.3011,4.60079,2470.507,2022-10-15T07:04:11Z
2022-10-15T05:05:19Z,42.805,6.029,13.3033,4.60090,2470.52,2022-10-15T07:07:14Z
2022-10-15T05:08:22Z,42.805,6.029,13.3026,4.60096,2470.544,2022-10-15T07:10:17Z
2022-10-15T05:11:25Z,42.805,6.029,13.3022,4.60079,2470.544,2022-10-15T07:13:20Z
2022-10-15T05:14:28Z,42.805,6.029,13.3019,4.60079,2470.483,2022-10-15T07:16:23Z
2022-10-15T05:17:31Z,42.805,6.029,13.3016,4.60074,2470.567,2022-10-15T07:19:26Z
2022-10-15T05:20:34Z,42.805,6.029,13.3024,4.60087,2470.53,2022-10-15T07:22:29Z
2022-10-15T05:23:37Z,42.805,6.029,13.3019,4.60070,2470.53,2022-10-15T07:25:33Z
2022-10-15T05:26:41Z,42.805,6.029,13.3010,4.60072,2470.53,2022-10-15T07:28:36Z
2022-10-15T05:29:44Z,42.805,6.029,13.3017,4.60089,2470.52,2022-10-15T07:31:39Z
2022-10-15T05:32:47Z,42.805,6.029,13.3021,4.60108,2470.53,2022-10-15T07:34:42Z
2022-10-15T05:35:50Z,42.805,6.029,13.3022,4.60084,2470.53,2022-10-15T07:37:45Z
2022-10-15T05:38:53Z,42.805,6.029,13.3019,4.60076,2470.52,2022-10-15T07:40:48Z
2022-10-15T05:41:56Z,42.805,6.029,13.3019,4.60073,2470.507,2022-10-15T07:43:51Z
2022-10-15T05:44:59Z,42.805,6.029,13.3015,4.60074,2470.53,2022-10-15T07:46:54Z
2022-10-15T05:48:02Z,42.805,6.029,13.3018,4.60069,2470.483,2022-10-15T07:49:57Z
2022-10-15T05:51:05Z,42.805,6.029,13.3014,4.60072,2470.516,2022-10-15T07:53:00Z
2022-10-15T05:54:08Z,42.805,6.029,13.3016,4.60080,2470.53,2022-10-15T07:56:03Z
2022-10-15T05:57:11Z,42.805,6.029,13.3015,4.60078,2470.507,2022-10-15T07:59:06Z
2022-10-15T06:00:14Z,42.805,6.029,13.3018,4.60089,2470.53,2022-10-15T08:02:09Z
2022-10-15T06:03:17Z,42.805,6.029,13.3014,4.60091,2470.567,2022-10-15T08:05:13Z
2022-10-15T06:06:20Z,42.805,6.029,13.3028,4.60089,2470.53,2022-10-15T08:08:16Z
2022-10-15T06:09:24Z,42.805,6.029,13.3026,4.60081,2470.507,2022-10-15T08:11:19Z
2022-10-15T06:12:27Z,42.805,6.029,13.3022,4.60072,2470.53,2022-10-15T08:14:22Z
2022-10-15T06:15:30Z,42.805,6.029,13.3017,4.60074,2470.553,2022-10-15T08:17:25Z
2022-10-15T06:18:33Z,42.805,6.029,13.3021,4.60096,2470.507,2022-10-15T08:20:28Z
2022-10-15T06:21:36Z,42.805,6.029,13.3033,4.60087,2470.553,2022-10-15T08:23:31Z
2022-10-15T06:24:39Z,42.805,6.029,13.3014,4.60085,2470.567,2022-10-15T08:26:34Z
2022-10-15T06:27:42Z,42.805,6.029,13.3026,4.60077,2470.577,2022-10-15T08:29:37Z
2022-10-15T06:30:45Z,42.805,6.029,13.3024,4.60086,2470.53,2022-10-15T08:32:40Z
2022-10-15T06:33:48Z,42.805,6.029,13.3017,4.60077,2470.544,2022-10-15T08:35:43Z
2022-10-15T06:36:51Z,42.805,6.029,13.3019,4.60078,2470.544,2022-10-15T08:38:46Z
2022-10-15T06:39:54Z,42.805,6.029,13.3020,4.60074,2470.544,2022-10-15T08:41:49Z
2022-10-15T06:42:57Z,42.805,6.029,13.3018,4.60102,2470.567,2022-10-15T08:44:53Z
2022-10-15T06:46:00Z,42.805,6.029,13.3021,4.60106,2470.53,2022-10-15T08:47:56Z
2022-10-15T06:49:04Z,42.805,6.029,13.3019,4.60092,2470.544,2022-10-15T08:50:59Z
2022-10-15T06:52:07Z,42.805,6.029,13.3013,4.60098,2470.577,2022-10-15T08:54:02Z
2022-10-15T06:55:10Z,42.805,6.029,13.3021,4.60087,2470.591,2022-10-15T08:57:05Z
2022-10-15T06:58:13Z,42.805,6.029,13.3021,4.60098,2470.544,2022-10-15T09:00:08Z
2022-10-15T07:01:16Z,42.805,6.029,13.3029,4.60099,2470.553,2022-10-15T09:03:11Z
2022-10-15T07:04:19Z,42.805,6.029,13.3031,4.60096,2470.577,2022-10-15T09:06:14Z
2022-10-15T07:07:22Z,42.805,6.029,13.3018,4.60096,2470.6,2022-10-15T09:09:17Z
2022-10-15T07:10:25Z,42.805,6.029,13.3019,4.60089,2470.591,2022-10-15T09:12:20Z
2022-10-15T07:13:28Z,42.805,6.029,13.3019,4.60094,2470.567,2022-10-15T09:15:23Z
2022-10-15T07:16:31Z,42.805,6.029,13.3019,4.60099,2470.591,2022-10-15T09:18:26Z
2022-10-15T07:19:34Z,42.805,6.029,13.3019,4.60087,2470.553,2022-10-15T09:21:29Z
2022-10-15T07:22:37Z,42.805,6.029,13.3029,4.60098,2470.577,2022-10-15T09:24:33Z
2022-10-15T07:25:41Z,42.805,6.029,13.3023,4.60097,2470.591,2022-10-15T09:27:36Z
2022-10-15T07:28:44Z,42.805,6.029,13.3016,4.60079,2470.553,2022-10-15T09:30:39Z
2022-10-15T07:31:47Z,42.805,6.029,13.3029,4.60120,2470.614,2022-10-15T09:33:42Z
2022-10-15T07:34:50Z,42.805,6.029,13.3018,4.60096,2470.591,2022-10-15T09:36:45Z
2022-10-15T07:37:53Z,42.805,6.029,13.3021,4.60096,2470.577,2022-10-15T09:39:48Z
2022-10-15T07:40:56Z,42.805,6.029,13.3016,4.60081,2470.624,2022-10-15T09:42:51Z
2022-10-15T07:43:59Z,42.805,6.029,13.3029,4.60111,2470.614,2022-10-15T09:45:54Z
2022-10-15T07:47:02Z,42.805,6.029,13.3030,4.60108,2470.614,2022-10-15T09:48:57Z
2022-10-15T07:50:05Z,42.805,6.029,13.3026,4.60101,2470.637,2022-10-15T09:52:00Z
2022-10-15T07:53:08Z,42.805,6.029,13.3024,4.60079,2470.614,2022-10-15T09:55:03Z
2022-10-15T07:56:11Z,42.805,6.029,13.3032,4.60108,2470.624,2022-10-15T09:58:06Z
2022-10-15T07:59:14Z,42.805,6.029,13.3022,4.60081,2470.624,2022-10-15T10:01:09Z
2022-10-15T08:02:17Z,42.805,6.029,13.3013,4.60090,2470.624,2022-10-15T10:04:13Z
2022-10-15T08:05:21Z,42.805,6.029,13.3022,4.60098,2470.614,2022-10-15T10:07:16Z
2022-10-15T08:08:24Z,42.805,6.029,13.3028,4.60089,2470.637,2022-10-15T10:10:19Z
2022-10-15T08:11:27Z,42.805,6.029,13.3019,4.60092,2470.6,2022-10-15T10:13:22Z
2022-10-15T08:14:30Z,42.805,6.029,13.3015,4.60091,2470.624,2022-10-15T10:16:25Z
2022-10-15T08:17:33Z,42.805,6.029,13.3021,4.60089,2470.6,2022-10-15T10:19:28Z
2022-10-15T08:20:36Z,42.805,6.029,13.3020,4.60094,2470.661,2022-10-15T10:22:31Z
2022-10-15T08:23:39Z,42.805,6.029,13.3028,4.60106,2470.637,2022-10-15T10:25:34Z
2022-10-15T08:26:42Z,42.805,6.029,13.3030,4.60097,2470.637,2022-10-15T10:28:37Z
2022-10-15T08:29:45Z,42.805,6.029,13.3020,4.60089,2470.624,2022-10-15T10:31:40Z
2022-10-15T08:32:48Z,42.805,6.029,13.3015,4.60096,2470.661,2022-10-15T10:34:43Z
2022-10-15T08:35:51Z,42.805,6.029,13.3014,4.60080,2470.624,2022-10-15T10:37:46Z
2022-10-15T08:38:54Z,42.805,6.029,13.3026,4.60099,2470.624,2022-10-15T10:40:50Z
2022-10-15T08:41:58Z,42.805,6.029,13.3021,4.60087,2470.624,2022-10-15T10:43:53Z
2022-10-15T08:45:01Z,42.805,6.029,13.3016,4.60084,2470.661,2022-10-15T10:46:56Z
2022-10-15T08:48:04Z,42.805,6.029,13.3019,4.60092,2470.624,2022-10-15T10:49:59Z
2022-10-15T08:51:07Z,42.805,6.029,13.3028,4.60113,2470.624,2022-10-15T10:53:02Z
2022-10-15T08:54:10Z,42.805,6.029,13.3017,4.60097,2470.67,2022-10-15T10:56:05Z
2022-10-15T08:57:13Z,42.805,6.029,13.3029,4.60104,2470.661,2022-10-15T10:59:08Z
2022-10-15T09:00:16Z,42.805,6.029,13.3031,4.60106,2470.661,2022-10-15T11:02:11Z
2022-10-15T09:03:19Z,42.805,6.029,13.3020,4.60074,2470.646,2022-10-15T11:05:14Z
2022-10-15T09:06:22Z,42.805,6.029,13.3019,4.60079,2470.646,2022-10-15T11:08:17Z
2022-10-15T09:09:25Z,42.805,6.029,13.3021,4.60089,2470.67,2022-10-15T11:11:20Z
2022-10-15T09:12:28Z,42.805,6.029,13.3033,4.60097,2470.661,2022-10-15T11:14:23Z
2022-10-15T09:15:31Z,42.805,6.029,13.3023,4.60095,2470.67,2022-10-15T11:17:27Z
2022-10-15T09:18:34Z,42.805,6.029,13.3027,4.60131,2470.684,2022-10-15T11:20:30Z
2022-10-15T09:21:38Z,42.805,6.029,13.3017,4.60107,2470.637,2022-10-15T11:23:33Z
2022-10-15T09:24:41Z,42.805,6.029,13.3018,4.60084,2470.67,2022-10-15T11:26:36Z
2022-10-15T09:27:44Z,42.805,6.029,13.3026,4.60114,2470.661,2022-10-15T11:29:39Z
2022-10-15T09:30:47Z,42.805,6.029,13.3019,4.60122,2470.646,2022-10-15T11:32:42Z
2022-10-15T09:33:50Z,42.805,6.029,13.3016,4.60080,2470.646,2022-10-15T11:35:45Z
2022-10-15T09:36:53Z,42.805,6.029,13.3015,4.60086,2470.684,2022-10-15T11:38:48Z
2022-10-15T09:39:56Z,42.805,6.029,13.3017,4.60075,2470.693,2022-10-15T11:41:51Z
2022-10-15T09:42:59Z,42.805,6.029,13.3021,4.60081,2470.693,2022-10-15T11:44:54Z
2022-10-15T09:46:02Z,42.805,6.029,13.3020,4.60085,2470.646,2022-10-15T11:47:57Z
2022-10-15T09:49:05Z,42.805,6.029,13.3019,4.60113,2470.693,2022-10-15T11:51:00Z
2022-10-15T09:52:08Z,42.805,6.029,13.3018,4.60080,2470.67,2022-10-15T11:54:04Z
2022-10-15T09:55:11Z,42.805,6.029,13.3017,4.60090,2470.717,2022-10-15T11:57:07Z
2022-10-15T09:58:15Z,42.805,6.029,13.3021,4.60128,2470.693,2022-10-15T12:00:10Z
2022-10-15T10:01:18Z,42.805,6.029,13.3023,4.60102,2470.717,2022-10-15T12:03:13Z
2022-10-15T10:04:21Z,42.805,6.029,13.3021,4.60109,2470.67,2022-10-15T12:06:16Z
2022-10-15T10:07:24Z,42.805,6.029,13.3022,4.60085,2470.67,2022-10-15T12:09:19Z
2022-10-15T10:10:27Z,42.805,6.029,13.3014,4.60100,2470.707,2022-10-15T12:12:22Z
2022-10-15T10:13:30Z,42.805,6.029,13.3015,4.60091,2470.67,2022-10-15T12:15:25Z
2022-10-15T10:16:33Z,42.805,6.029,13.3018,4.60087,2470.693,2022-10-15T12:18:28Z
2022-10-15T10:19:36Z,42.805,6.029,13.3028,4.60108,2470.693,2022-10-15T12:21:31Z
2022-10-15T10:22:39Z,42.805,6.029,13.3018,4.60089,2470.707,2022-10-15T12:24:34Z
2022-10-15T10:25:42Z,42.805,6.029,13.3013,4.60092,2470.717,2022-10-15T12:27:37Z
2022-10-15T10:28:45Z,42.805,6.029,13.3019,4.60085,2470.693,2022-10-15T12:30:41Z
2022-10-15T10:31:49Z,42.805,6.029,13.3023,4.60101,2470.693,2022-10-15T12:33:44Z
2022-10-15T10:34:52Z,42.805,6.029,13.3021,4.60084,2470.684,2022-10-15T12:36:47Z
2022-10-15T10:37:55Z,42.805,6.029,13.3019,4.60098,2470.679,2022-10-15T12:39:50Z
2022-10-15T10:40:58Z,42.805,6.029,13.3029,4.60107,2470.67,2022-10-15T12:42:53Z
2022-10-15T10:44:01Z,42.805,6.029,13.3015,4.60080,2470.67,2022-10-15T12:45:56Z
2022-10-15T10:47:04Z,42.805,6.029,13.3025,4.60090,2470.67,2022-10-15T12:48:59Z
2022-10-15T10:50:07Z,42.805,6.029,13.3024,4.60113,2470.74,2022-10-15T12:52:02Z
2022-10-15T10:53:10Z,42.805,6.029,13.3025,4.60089,2470.693,2022-10-15T12:55:05Z
2022-10-15T10:56:13Z,42.805,6.029,13.3019,4.60081,2470.73,2022-10-15T12:58:08Z
2022-10-15T10:59:16Z,42.805,6.029,13.3018,4.60079,2470.684,2022-10-15T13:01:11Z
2022-10-15T11:02:19Z,42.805,6.029,13.3018,4.60084,2470.693,2022-10-15T13:04:15Z
2022-10-15T11:05:22Z,42.805,6.029,13.3021,4.60110,2470.707,2022-10-15T13:07:18Z
2022-10-15T11:08:26Z,42.805,6.029,13.3023,4.60104,2470.684,2022-10-15T13:10:21Z
2022-10-15T11:11:29Z,42.805,6.029,13.3015,4.60077,2470.707,2022-10-15T13:13:24Z
2022-10-15T11:14:32Z,42.805,6.029,13.3013,4.60082,2470.67,2022-10-15T13:16:27Z
2022-10-15T11:17:35Z,42.805,6.029,13.3020,4.60072,2470.67,2022-10-15T13:19:30Z
2022-10-15T11:20:38Z,42.805,6.029,13.3023,4.60108,2470.661,2022-10-15T13:22:33Z
2022-10-15T11:23:41Z,42.805,6.029,13.3024,4.60097,2470.707,2022-10-15T13:25:36Z
2022-10-15T11:26:44Z,42.805,6.029,13.3016,4.60080,2470.67,2022-10-15T13:28:39Z
2022-10-15T11:29:47Z,42.805,6.029,13.3019,4.60075,2470.67,2022-10-15T13:31:42Z
2022-10-15T11:32:50Z,42.805,6.029,13.3029,4.60122,2470.684,2022-10-15T13:34:45Z
2022-10-15T11:35:53Z,42.805,6.029,13.3024,4.60109,2470.67,2022-10-15T13:37:48Z
2022-10-15T11:38:56Z,42.805,6.029,13.3034,4.60112,2470.67,2022-10-15T13:40:51Z
2022-10-15T11:41:59Z,42.805,6.029,13.3024,4.60099,2470.693,2022-10-15T13:43:55Z
2022-10-15T11:45:03Z,42.805,6.029,13.3029,4.60110,2470.693,2022-10-15T13:46:58Z
2022-10-15T11:48:06Z,42.805,6.029,13.3030,4.60110,2470.67,2022-10-15T13:50:01Z
2022-10-15T11:51:09Z,42.805,6.029,13.3014,4.60092,2470.717,2022-10-15T13:53:04Z
2022-10-15T11:54:12Z,42.805,6.029,13.3014,4.60075,2470.67,2022-10-15T13:56:07Z
2022-10-15T11:57:15Z,42.805,6.029,13.3026,4.60088,2470.693,2022-10-15T13:59:10Z
2022-10-15T12:00:18Z,42.805,6.029,13.3024,4.60081,2470.661,2022-10-15T14:02:13Z
2022-10-15T12:03:21Z,42.805,6.029,13.3021,4.60087,2470.693,2022-10-15T14:05:16Z
2022-10-15T12:06:24Z,42.805,6.029,13.3014,4.60093,2470.693,2022-10-15T14:08:19Z
2022-10-15T12:09:27Z,42.805,6.029,13.3021,4.60082,2470.67,2022-10-15T14:11:22Z
2022-10-15T12:12:30Z,42.805,6.029,13.3018,4.60074,2470.67,2022-10-15T14:14:25Z
2022-10-15T12:15:33Z,42.805,6.029,13.3016,4.60075,2470.67,2022-10-15T14:17:29Z
2022-10-15T12:18:36Z,42.805,6.029,13.3017,4.60116,2470.661,2022-10-15T14:20:32Z
2022-10-15T12:21:40Z,42.805,6.029,13.3016,4.60086,2470.707,2022-10-15T14:23:35Z
2022-10-15T12:24:43Z,42.805,6.029,13.3031,4.60087,2470.67,2022-10-15T14:26:38Z
2022-10-15T12:27:46Z,42.805,6.029,13.3019,4.60082,2470.67,2022-10-15T14:29:41Z
2022-10-15T12:30:49Z,42.805,6.029,13.3015,4.60079,2470.624,2022-10-15T14:32:44Z
2022-10-15T12:33:52Z,42.805,6.029,13.3019,4.60088,2470.646,2022-10-15T14:35:47Z
2022-10-15T12:36:55Z,42.805,6.029,13.3021,4.60094,2470.661,2022-10-15T14:38:50Z
2022-10-15T12:39:58Z,42.805,6.029,13.3015,4.60088,2470.646,2022-10-15T14:41:53Z
2022-10-15T12:43:01Z,42.805,6.029,13.3020,4.60090,2470.646,2022-10-15T14:44:56Z
2022-10-15T12:46:04Z,42.805,6.029,13.3019,4.60103,2470.646,2022-10-15T14:47:59Z
2022-10-15T12:49:07Z,42.805,6.029,13.3016,4.60077,2470.67,2022-10-15T14:51:02Z
2022-10-15T12:52:10Z,42.805,6.029,13.3020,4.60082,2470.661,2022-10-15T14:54:05Z
2022-10-15T12:55:13Z,42.805,6.029,13.3026,4.60079,2470.661,2022-10-15T14:57:09Z
2022-10-15T12:58:16Z,42.805,6.029,13.3031,4.60082,2470.646,2022-10-15T15:00:12Z
2022-10-15T13:01:20Z,42.805,6.029,13.3017,4.60094,2470.624,2022-10-15T15:03:15Z
2022-10-15T13:04:23Z,42.805,6.029,13.3015,4.60072,2470.67,2022-10-15T15:06:18Z
2022-10-15T13:07:26Z,42.805,6.029,13.3026,4.60102,2470.661,2022-10-15T15:09:21Z
2022-10-15T13:10:29Z,42.805,6.029,13.3021,4.60099,2470.646,2022-10-15T15:12:24Z
2022-10-15T13:13:32Z,42.805,6.029,13.3024,4.60074,2470.624,2022-10-15T15:15:27Z
2022-10-15T13:16:35Z,42.805,6.029,13.3013,4.60079,2470.646,2022-10-15T15:18:30Z
2022-10-15T13:19:38Z,42.805,6.029,13.3021,4.60070,2470.646,2022-10-15T15:21:33Z
2022-10-15T13:22:41Z,42.805,6.029,13.3017,4.60069,2470.61,2022-10-15T15:24:36Z
2022-10-15T13:25:44Z,42.805,6.029,13.3015,4.60076,2470.67,2022-10-15T15:27:39Z
2022-10-15T13:28:47Z,42.805,6.029,13.3030,4.60070,2470.646,2022-10-15T15:30:42Z
2022-10-15T13:31:50Z,42.805,6.029,13.3018,4.60080,2470.624,2022-10-15T15:33:46Z
2022-10-15T13:34:54Z,42.805,6.029,13.3014,4.60074,2470.661,2022-10-15T15:36:49Z
2022-10-15T13:37:57Z,42.805,6.029,13.3021,4.60075,2470.624,2022-10-15T15:39:52Z
2022-10-15T13:41:00Z,42.805,6.029,13.3018,4.60097,2470.646,2022-10-15T15:42:55Z
2022-10-15T13:44:03Z,42.805,6.029,13.3029,4.60108,2470.646,2022-10-15T15:45:58Z
2022-10-15T13:47:06Z,42.805,6.029,13.3026,4.60108,2470.646,2022-10-15T15:49:01Z
2022-10-15T13:50:09Z,42.805,6.029,13.3039,4.60112,2470.614,2022-10-15T15:52:04Z
2022-10-15T13:53:12Z,42.805,6.029,13.3034,4.60104,2470.6,2022-10-15T15:55:07Z
2022-10-15T13:56:15Z,42.805,6.029,13.3023,4.60086,2470.637,2022-10-15T15:58:10Z
2022-10-15T13:59:18Z,42.805,6.029,13.3033,4.60087,2470.646,2022-10-15T16:01:13Z
2022-10-15T14:02:21Z,42.805,6.029,13.3039,4.60114,2470.661,2022-10-15T16:04:16Z
2022-10-15T14:05:24Z,42.805,6.029,13.3031,4.60122,2470.624,2022-10-15T16:07:19Z
2022-10-15T14:08:27Z,42.805,6.029,13.3023,4.60093,2470.637,2022-10-15T16:10:23Z
2022-10-15T14:11:30Z,42.805,6.029,13.3024,4.60121,2470.646,2022-10-15T16:13:26Z
2022-10-15T14:14:34Z,42.805,6.029,13.3041,4.60124,2470.624,2022-10-15T16:16:29Z
2022-10-15T14:17:37Z,42.805,6.029,13.3033,4.60110,2470.624,2022-10-15T16:19:32Z
2022-10-15T14:20:40Z,42.805,6.029,13.3036,4.60117,2470.637,2022-10-15T16:22:35Z
2022-10-15T14:23:43Z,42.805,6.029,13.3031,4.60112,2470.6,2022-10-15T16:25:38Z
2022-10-15T14:26:46Z,42.805,6.029,13.3016,4.60094,2470.646,2022-10-15T16:28:41Z
2022-10-15T14:29:49Z,42.805,6.029,13.3025,4.60092,2470.624,2022-10-15T16:31:44Z
2022-10-15T14:32:52Z,42.805,6.029,13.3023,4.60072,2470.614,2022-10-15T16:34:47Z
2022-10-15T14:35:55Z,42.805,6.029,13.3021,4.60110,2470.6,2022-10-15T16:37:50Z
2022-10-15T14:38:58Z,42.805,6.029,13.3023,4.60102,2470.6,2022-10-15T16:40:53Z
2022-10-15T14:42:01Z,42.805,6.029,13.3026,4.60117,2470.646,2022-10-15T16:43:57Z
2022-10-15T14:45:04Z,42.805,6.029,13.3031,4.60098,2470.637,2022-10-15T16:47:00Z
2022-10-15T14:48:08Z,42.805,6.029,13.3027,4.60105,2470.624,2022-10-15T16:50:03Z
2022-10-15T14:51:11Z,42.805,6.029,13.3043,4.60105,2470.6,2022-10-15T16:53:06Z
2022-10-15T14:54:14Z,42.805,6.029,13.3048,4.60102,2470.614,2022-10-15T16:56:09Z
2022-10-15T14:57:17Z,42.805,6.029,13.3035,4.60117,2470.646,2022-10-15T16:59:12Z
2022-10-15T15:00:20Z,42.805,6.029,13.3031,4.60125,2470.614,2022-10-15T17:02:15Z